Cedar Rapids, IA

10:57 PM CST on November 18, 2019 (GMT -0600)
The Eastern Iowa Airport

Weather History for KCID - September, 2019

Change the Weather History Date:

Thursday, September 12, 2019

  Actual Average Record
Temperature  
Mean Temperature 77 °F 64 °F  
Max Temperature 87 °F 76 °F 96 °F (1927)
Min Temperature 67 °F 53 °F 36 °F (1975)
Degree Days  
Heating Degree Days 0 3  
Month to date heating degree days 7 26  
Since 1 July heating degree days 15 45  
Cooling Degree Days 12 3  
Month to date cooling degree days 56 44  
Year to date cooling degree days 708 712  
Growing Degree Days 27 (Base 50)    
Moisture  
Dew Point 71 °F    
Average Humidity 81    
Maximum Humidity 100    
Minimum Humidity 61    
Precipitation  
Precipitation 0.39 in 0.10 in 2.60 in (1961)
Month to date precipitation 2.02 1.36  
Year to date precipitation 29.87 26.66  
Sea Level Pressure  
Sea Level Pressure 29.94 in    
Wind  
Wind Speed 10 mph (South)    
Max Wind Speed 37 mph    
Max Gust Speed 52 mph    
Visibility 8 miles    
Events Rain , Thunderstorm    
T = Trace of Precipitation, MM = Missing Value Source: NWS Daily Summary

Daily Weather History Graph

Daily Weather History Graph

Search for Another Location

Airport or City:

Astronomy

Sep. 12, 2019 Rise Set
Actual Time 6:43 AM CDT 7:21 PM CDT
Civil Twilight 6:15 AM CDT 7:49 PM CDT
Nautical Twilight 5:42 AM CDT 8:23 PM CDT
Astronomical Twilight 5:07 AM CDT 8:57 PM CDT
Moon 7:08 PM CDT (9/12) 5:01 AM CDT (9/12)
Length of Visible Light 13h 34m
Length of Day
12h 38m
Waxing Gibbous, 98% of the Moon is Illuminated
Sep 12
Waxing Gibbous
Sep 13
Full
Sep 21
Last Quarter
Sep 28
New
Oct 5
First Quarter

Hourly Weather History & Observations

Time (CDT) Temp. Heat Index Dew Point Humidity Pressure Visibility Wind Dir Wind Speed Gust Speed Precip Events Conditions
12:52 AM 71.1 °F - 70.0 °F 96% 29.97 in 6.0 mi ESE 6.9 mph - N/A   Clear
1:52 AM 70.0 °F - 70.0 °F 100% 29.99 in 5.0 mi ESE 5.8 mph - N/A   Clear
2:52 AM 70.0 °F - 70.0 °F 100% 30.00 in 4.0 mi East 9.2 mph - N/A   Clear
3:52 AM 70.0 °F - 69.1 °F 97% 30.01 in 5.0 mi East 12.7 mph - N/A   Partly Cloudy
4:52 AM 69.1 °F - 66.9 °F 93% 30.02 in 10.0 mi East 12.7 mph - N/A   Scattered Clouds
5:52 AM 68.0 °F - 66.0 °F 93% 30.02 in 10.0 mi SE 6.9 mph - N/A   Overcast
6:52 AM 68.0 °F - 66.0 °F 93% 30.02 in 10.0 mi East 8.1 mph - 0.00 in   Mostly Cloudy
7:03 AM 68.0 °F - 66.9 °F 96% 30.05 in 1.2 mi SSE 12.7 mph - 0.11 in Rain Rain
7:11 AM 68.0 °F - 66.9 °F 96% 30.03 in 10.0 mi ESE 13.8 mph 25.3 mph 0.14 in Rain Light Rain
7:52 AM 68.0 °F - 68.0 °F 100% 30.01 in 10.0 mi ESE 10.4 mph - 0.14 in   Partly Cloudy
8:52 AM 71.1 °F - 70.0 °F 96% 30.01 in 9.0 mi SE 8.1 mph - N/A   Mostly Cloudy
9:52 AM 73.0 °F - 71.1 °F 93% 30.00 in 6.0 mi SE 8.1 mph - 0.05 in   Scattered Clouds
10:52 AM 75.9 °F - 73.0 °F 91% 29.99 in 7.0 mi SE 9.2 mph - 0.00 in   Partly Cloudy
11:52 AM 80.1 °F 84.2 °F 73.0 °F 79% 29.98 in 10.0 mi SSE 12.7 mph 19.6 mph N/A   Scattered Clouds
12:52 PM 84.0 °F 91.2 °F 73.9 °F 72% 29.96 in 10.0 mi SSE 13.8 mph 23.0 mph N/A   Scattered Clouds
1:52 PM 84.0 °F 90.2 °F 73.0 °F 69% 29.94 in 10.0 mi South 12.7 mph - N/A   Mostly Cloudy
2:52 PM 84.9 °F 91.4 °F 73.0 °F 67% 29.91 in 10.0 mi South 10.4 mph 19.6 mph N/A   Mostly Cloudy
3:52 PM 86.0 °F 91.5 °F 71.1 °F 61% 29.88 in 10.0 mi South 16.1 mph 31.1 mph N/A   Mostly Cloudy
4:28 PM 84.0 °F 89.0 °F 71.1 °F 65% 29.88 in 9.0 mi SSW 28.8 mph 50.6 mph N/A Thunderstorm Partly Cloudy
4:30 PM 81.0 °F 84.9 °F 71.1 °F 72% 29.88 in 2.5 mi SW 32.2 mph 51.8 mph 0.05 in Rain , Thunderstorm Rain
4:37 PM 73.9 °F - 69.1 °F 85% 29.88 in 1.0 mi South 15.0 mph 51.8 mph 0.13 in Rain Heavy Rain
4:45 PM 73.9 °F - 71.1 °F 91% 29.87 in 7.0 mi South 8.1 mph - 0.15 in Rain Rain
4:52 PM 77.0 °F - 73.9 °F 90% 29.85 in 10.0 mi South 8.1 mph - 0.15 in   Mostly Cloudy
5:52 PM 79.0 °F - 72.0 °F 79% 29.88 in 10.0 mi SW 10.4 mph - N/A   Mostly Cloudy
6:52 PM 78.1 °F - 72.0 °F 81% 29.89 in 6.0 mi West 19.6 mph 28.8 mph N/A   Haze
6:55 PM 78.1 °F - 72.0 °F 81% 29.91 in 2.0 mi WSW 17.3 mph 28.8 mph 0.02 in Rain , Thunderstorm Rain
6:57 PM 77.0 °F - 71.1 °F 82% 29.91 in 6.0 mi WSW 20.7 mph 31.1 mph 0.02 in Rain , Thunderstorm Rain
7:20 PM 73.0 °F - 71.1 °F 93% 29.91 in 6.0 mi SSW 13.8 mph 28.8 mph 0.04 in Rain , Thunderstorm Thunderstorms and Rain
7:41 PM 72.0 °F - 71.1 °F 97% 29.91 in 10.0 mi South 12.7 mph - 0.05 in Thunderstorm Mostly Cloudy
7:52 PM 72.0 °F - 71.1 °F 97% 29.89 in 10.0 mi South 10.4 mph - 0.05 in Thunderstorm Mostly Cloudy
8:00 PM 72.0 °F - 71.1 °F 97% 29.91 in 10.0 mi South 9.2 mph - N/A   Mostly Cloudy
8:52 PM 72.0 °F - 71.1 °F 97% 29.92 in 10.0 mi SW 9.2 mph - N/A   Clear
9:52 PM 73.0 °F - 71.1 °F 93% 29.92 in 10.0 mi SW 11.5 mph - N/A   Scattered Clouds
10:52 PM 72.0 °F - 71.1 °F 97% 29.92 in 10.0 mi West 9.2 mph - N/A   Overcast
11:52 PM 71.1 °F - 69.1 °F 93% 29.93 in 10.0 mi West 10.4 mph - N/A   Mostly Cloudy